This demonstration page uses our WeatherBlox Daily Observations layout. Learn more.

Left ArrowRight Arrow

38.80484, -77.04692

Hourly Observations for December 1, 2018

Temp ( °F °C ) Dew Point ( °F °C ) Humidity (%) Winds ( mph kmh ) Pressure ( in mb ) Visibility ( mi km ) Precip ( " mm )
12:52 am 00:52 Partly Cloudy 38 3.3 33 0.6 83 83 S 3 6 30.15 1021 8 13 0.00 0.00
1:52 am 01:52 Mostly Cloudy 38 3.3 32 0 79 79 Calm 30.16 1021 8 13 0.00 0.00
2:17 am 02:17 Mostly Cloudy 38 3.3 33 0.6 83 83 Calm 30.15 1021 8 13 0.00 0.00
2:52 am 02:52 Cloudy 38 3.3 34 1.1 86 86 SW 3 6 30.17 1022 8 13 0.00 0.00
3:22 am 03:22 Partly Cloudy 37 2.8 32 0 82 82 W 6 9 30.18 1022 10 16 0.00 0.00
3:52 am 03:52 Partly Cloudy 38 3.3 33 0.6 83 83 Calm 30.18 1022 10 16 0.00 0.00
4:52 am 04:52 Cloudy 38 3.3 33 0.6 83 83 N 3 6 30.18 1022 10 16 0.00 0.00
5:52 am 05:52 Cloudy 39 3.9 34 1.1 82 82 Calm 30.19 1022 10 16 0.00 0.00
6:52 am 06:52 Cloudy 40 4.4 35 1.7 83 83 Calm 30.20 1023 10 16 0.00 0.00
7:52 am 07:52 Cloudy 41 5 36 2.2 82 82 Calm 30.21 1023 8 13 0.00 0.00
8:52 am 08:52 Cloudy 42 5.6 36 2.2 79 79 NE 5 7 30.20 1023 9 14 0.00 0.00
9:52 am 09:52 Cloudy 43 6.1 35 1.7 74 74 NE 7 11 30.20 1023 9 14 0.00 0.00
10:52 am 10:52 Cloudy 43 6.1 34 1.1 71 71 Calm 30.21 1023 9 14 0.00 0.00
11:19 am 11:19 Cloudy with Light Rain 43 6.1 35 1.7 74 74 N 5 7 30.21 1023 3 5 0.00 0.03
11:27 am 11:27 Cloudy with Light Rain 43 6.1 36 2.2 76 76 N 3 6 30.21 1023 3 4 0.00 0.03
11:47 am 11:47 Cloudy with Light Rain 41 5 36 2 81 81 Calm 30.18 1022 2 3 0.02 0.51
11:52 am 11:52 Cloudy with Light Rain 41 5 37 2.8 86 86 Calm 30.19 1022 2 3 0.02 0.51
12:12 pm 12:12 Cloudy with Light Rain 41 5 37 2.8 86 86 Calm 30.18 1022 2 3 0.03 0.76
12:20 pm 12:20 Cloudy with Light Rain 41 5 37 2.8 86 86 Calm 30.18 1022 2 3 0.04 1.02
12:29 pm 12:29 Cloudy with Rain 41 5 38 3.3 89 89 Calm 30.18 1022 2 3 0.06 1.52
12:36 pm 12:36 Cloudy with Rain 41 5 37 2.8 86 86 NE 3 6 30.18 1022 2 3 0.07 1.78
12:52 pm 12:52 Cloudy with Rain 41 5 38 3.3 89 89 NE 5 7 30.16 1021 2 3 0.10 2.54
1:15 pm 13:15 Cloudy with Light Rain 41 5 38 3.3 89 89 ENE 3 6 30.15 1021 2 3 0.03 0.76
1:24 pm 13:24 Cloudy with Light Rain 41 5 38 3.3 89 89 E 5 7 30.15 1021 3 5 0.03 0.76
1:52 pm 13:52 Cloudy with Drizzle 42 5.6 38 3.3 85 85 NE 6 9 30.14 1021 4 6 0.03 0.76
2:03 pm 14:03 Cloudy with Drizzle 42 5.6 38 3.3 85 85 NE 6 9 30.15 1021 4 6 0.00 0.03
2:17 pm 14:17 Cloudy with Drizzle 42 5.6 38 3.3 85 85 NE 7 11 30.12 1020 3 4 0.00 0.03
2:52 pm 14:52 Cloudy with Drizzle 42 5.6 38 3.3 85 85 ENE 7 11 30.12 1020 2 3 0.00 0.03
3:00 pm 15:00 Cloudy with Drizzle 42 5.6 39 3.9 89 89 ENE 5 7 30.12 1020 2 2 0.00 0.03
3:52 pm 15:52 Cloudy with Drizzle 42 5.6 39 3.9 89 89 ENE 3 6 30.11 1020 1 2 0.01 0.25
4:00 pm 16:00 Cloudy with Drizzle 41 5 39 3.9 93 93 NE 5 7 30.12 1020 1 1 0.00 0.03
4:08 pm 16:08 Cloudy with Drizzle 41 5 39 3.9 93 93 NNE 5 7 30.12 1020 1 1 0.00 0.03
4:17 pm 16:17 Cloudy with Drizzle 41 5 38 3.3 89 89 NNE 5 7 30.12 1020 1 2 0.00 0.03
4:20 pm 16:20 Cloudy with Drizzle 41 5 39 3.9 93 93 NE 3 6 30.12 1020 1 2 0.00 0.03
4:52 pm 16:52 Cloudy with Drizzle 41 5 39 3.9 93 93 ENE 6 9 30.11 1020 2 3 0.00 0.03
5:00 pm 17:00 Cloudy with Drizzle 41 5 39 3.9 93 93 ENE 7 11 30.09 1019 2 3 0.00 0.03
5:19 pm 17:19 Cloudy with Drizzle 41 5 39 3.9 93 93 NNE 6 9 30.09 1019 1 2 0.00 0.03
5:41 pm 17:41 Cloudy with Drizzle 41 5 39 3.9 93 93 N 5 7 30.09 1019 2 3 0.00 0.03
5:52 pm 17:52 Cloudy with Drizzle 41 5 39 3.9 93 93 NNE 6 9 30.09 1019 2 3 0.00 0.03
6:17 pm 18:17 Cloudy with Drizzle 41 5 39 3.9 93 93 NE 6 9 30.09 1019 3 4 0.01 0.25
6:46 pm 18:46 Cloudy with Drizzle 43 6 39 4 87 87 NE 6 9 30.09 1019 3 5 0.01 0.25
6:52 pm 18:52 Cloudy with Drizzle 42 5.6 39 3.9 89 89 NNE 5 7 30.08 1019 3 5 0.01 0.25
7:26 pm 19:26 Cloudy with Drizzle 42 5.6 39 3.9 89 89 NNE 6 9 30.06 1018 3 5 0.00 0.03
7:52 pm 19:52 Cloudy with Drizzle 43 6.1 40 4.4 89 89 NNE 5 7 30.06 1018 4 6 0.00 0.03
8:07 pm 20:07 Cloudy with Drizzle 43 6.1 40 4.4 89 89 N 6 9 30.06 1018 4 6 0.00 0.03
8:52 pm 20:52 Cloudy with Drizzle 43 6.1 40 4.4 89 89 Calm 30.04 1017 4 6 0.00 0.03
9:52 pm 21:52 Cloudy with Drizzle 44 6.7 41 5 89 89 NNE 5 7 30.01 1016 4 6 0.00 0.03
10:39 pm 22:39 Cloudy with Drizzle 44 6.7 41 5 89 89 NNE 5 7 29.97 1015 2 3 0.00 0.03
10:45 pm 22:45 Cloudy with Drizzle 44 6.7 41 5 89 89 NNE 5 7 29.97 1015 2 2 0.00 0.03
10:52 pm 22:52 Cloudy with Drizzle 44 6.7 42 5.6 93 93 NNE 6 9 29.97 1015 2 2 0.01 0.25
11:52 pm 23:52 Cloudy with Light Rain 44 6.7 42 5.6 93 93 NE 7 11 29.91 1013 1 2 0.03 0.76

Powered by AerisWeather